This demonstration page uses our WeatherBlox Daily Observations layout. Learn more.

Left ArrowRight Arrow

Hourly Observations for June 19, 2021

Temp ( °F °C ) Dew Point ( °F °C ) Humidity (%) Winds ( mph kmh ) Pressure ( in mb ) Visibility ( mi km ) Precip ( " mm )
12:56 am 00:56 Clear 68 20 59 15 73 73 N 9 15 29.82 1010 10 16 0.00 0.00
1:56 am 01:56 Clear 70 21.1 58 14.4 66 66 N 9 15 29.83 1010 10 16 0.00 0.00
2:56 am 02:56 Clear 67 19.4 58 14.4 73 73 NNW 7 11 29.84 1010 10 16 0.00 0.00
3:56 am 03:56 Clear 65 18.3 57 13.9 76 76 N 10 17 29.83 1010 10 16 0.00 0.00
4:56 am 04:56 Clear 64 17.8 55 12.8 73 73 NNE 5 7 29.83 1010 10 16 0.00 0.00
5:56 am 05:56 Clear 63 17.2 55 12.8 76 76 N 14 22 29.83 1010 10 16 0.00 0.00
6:56 am 06:56 Sunny 64 17.8 54 12.2 70 70 NE 8 13 29.86 1011 10 16 0.00 0.00
7:56 am 07:56 Sunny 67 19.4 53 11.7 61 61 NE 18 30 29.87 1011 10 16 0.00 0.00
8:56 am 08:56 Sunny 70 21.1 52 11.1 53 53 ENE 18 30 29.88 1012 10 16 0.00 0.00
9:56 am 09:56 Sunny 74 23.3 51 10.6 45 45 ENE 17 28 29.88 1012 10 16 0.00 0.00
10:56 am 10:56 Sunny 76 24.4 51 10.6 42 42 E 23 37 29.84 1011 10 16 0.00 0.00
11:56 am 11:56 Sunny 80 26.7 53 11.7 39 39 ENE 17 28 29.83 1010 10 16 0.00 0.00
12:56 pm 12:56 Sunny 81 27.2 54 12.2 39 39 E 15 24 29.83 1010 10 16 0.00 0.00
1:56 pm 13:56 Sunny 84 28.9 56 13.3 38 38 E 13 20 29.81 1009 10 16 0.00 0.00
2:56 pm 14:56 Sunny 82 27.8 57 13.9 42 42 E 10 17 29.80 1009 10 16 0.00 0.00
3:56 pm 15:56 Sunny 81 27.2 58 14.4 45 45 E 13 20 29.77 1008 10 16 0.00 0.00
4:56 pm 16:56 Sunny 81 27.2 58 14.4 45 45 E 10 17 29.76 1008 10 16 0.00 0.00
5:56 pm 17:56 Sunny 82 27.8 59 15 46 46 E 13 20 29.72 1006 10 16 0.00 0.00
6:56 pm 18:56 Sunny 79 26.1 59 15 50 50 ENE 13 20 29.71 1006 10 16 0.00 0.00
7:56 pm 19:56 Sunny 78 25.6 59 15 52 52 E 3 6 29.73 1007 10 16 0.00 0.00
8:56 pm 20:56 Cloudy 78 25.6 61 16.1 56 56 N 8 13 29.74 1007 10 16 0.00 0.00
9:56 pm 21:56 Clear 74 23.3 58 14.4 57 57 NNE 12 19 29.66 1004 10 16 0.00 0.00
10:56 pm 22:56 Mostly Cloudy with Light Rain 74 23.3 60 15.6 62 62 ENE 3 6 29.68 1005 10 16 0.00 0.00
11:24 pm 23:24 Cloudy with Nearby Thunderstorms 72 22 63 17 73 73 SSW 22 35 29.70 1006 10 16 0.00 0.00
11:31 pm 23:31 Cloudy with Strong Thunderstorms 70 21 64 18 83 83 SSW 31 50 29.73 1007 5 8 0.07 1.78
11:56 pm 23:56 Cloudy with Strong Thunderstorms 66 18.9 64 17.8 93 93 SW 13 20 29.72 1006 6 10 0.29 7.37

Powered by AerisWeather